This is the latest recevied weather packets stored in our database for station/object KM6YFK-13. If no packets are shown the sender has not sent any weather packets the latest 10 day(s).
| Time | Temp. | Humidity | Pressure | Rain* | Wind** | Luminosity | Snow |
|---|---|---|---|---|---|---|---|
| 1777482510 | 27.22° C | 62% | 1015.7 hPa | 0 mm | - | 743 W/m² | - |
| 1777482209 | 27.22° C | 65% | 1015.8 hPa | 0 mm | - | 410 W/m² | - |
| 1777481910 | 27.22° C | 60% | 1015.9 hPa | 0 mm | - | 350 W/m² | - |
| 1777481608 | 27.78° C | 57% | 1016 hPa | 0 mm | - | 980 W/m² | - |
| 1777481308 | 27.22° C | 65% | 1016.1 hPa | 0 mm | - | 988 W/m² | - |
| 1777481007 | 27.78° C | 62% | 1016.2 hPa | 0 mm | - | 689 W/m² | - |
| 1777480708 | 27.78° C | 57% | 1016.2 hPa | 0 mm | - | 899 W/m² | - |
| 1777480408 | 27.22° C | 59% | 1016.3 hPa | 0 mm | - | 355 W/m² | - |
| 1777480108 | 27.22° C | 56% | 1016.4 hPa | 0 mm | - | 535 W/m² | - |
| 1777479808 | 27.22° C | 58% | 1016.5 hPa | 0 mm | - | 413 W/m² | - |
| 1777479508 | 27.22° C | 60% | 1016.5 hPa | 0 mm | - | 344 W/m² | - |
| 1777479208 | 27.78° C | 61% | 1016.6 hPa | 0 mm | - | 353 W/m² | - |
| 1777478909 | 27.78° C | 55% | 1016.7 hPa | 0 mm | - | 652 W/m² | - |
| 1777478608 | 27.22° C | 55% | 1016.7 hPa | 0 mm | - | 876 W/m² | - |
| 1777478308 | 26.67° C | 55% | 1016.7 hPa | 0 mm | - | 458 W/m² | - |
| 1777478008 | 26.67° C | 56% | 1016.7 hPa | 0 mm | - | 368 W/m² | - |
| 1777477708 | 27.22° C | 56% | 1016.8 hPa | 0 mm | - | 354 W/m² | - |
| 1777477409 | 27.22° C | 56% | 1016.9 hPa | 0 mm | - | 331 W/m² | - |
| 1777477108 | 27.22° C | 56% | 1016.9 hPa | 0 mm | - | 407 W/m² | - |
| 1777476808 | 27.22° C | 56% | 1017 hPa | 0 mm | - | 967 W/m² | - |
| 1777476508 | 27.22° C | 57% | 1017.1 hPa | 0 mm | - | 915 W/m² | - |
| 1777476209 | 26.67° C | 62% | 1017.3 hPa | 0 mm | - | 828 W/m² | - |
| 1777475910 | 26.67° C | 61% | 1017.4 hPa | 0 mm | - | 788 W/m² | - |
| 1777475608 | 26.67° C | 60% | 1017.4 hPa | 0 mm | - | 764 W/m² | - |
| 1777475310 | 26.67° C | 61% | 1017.6 hPa | 0 mm | - | 762 W/m² | - |
* Rain latest hour (hover to see other rain measurements)
** Current wind speed in m/s (hover to see current wind gust speed)